STARLINK-34430

Last updated on Thu Jul 03 2025 00:02:07 GMT+0000 (Coordinated Universal Time)

1 64456U 25130U 25183.58335648 -.00089490 00000+0 -61242-3 0 9996 2 64456 53.1563 179.7366 0001082 82.1082 55.9422 15.74219247 3508
UTC large
Height (km)
Speed (km/s)
/
Latitude / Longitude
Inclination (degrees)
Orbital Period (minutes)
Azimuth
Elevation
Range (km)
Doppler Factor

Next 0 passes for location: London (51.5072 / 0.1276)

Sorry there are no passes over London.